NR5ON-13 Weather Reports


time (UTC)temp
C
wind
direction
speed
KPH
gust
KPH
rain 1hr
cm
rain 24hr
cm
rain mn
cm
humidity
%
barometer
mb
20260508075332 5 234 0.0 0.0 0.00 0.00 0.00 34 1018.9
20260508074837 5 234 0.0 0.0 0.00 0.00 0.00 34 1019.0
20260508074342 5 234 0.0 0.0 0.00 0.00 0.00 34 1019.0
20260508073847 6 234 0.0 0.0 0.00 0.00 0.00 34 1019.1
20260508073331 6 234 0.0 0.0 0.00 0.00 0.00 36 1019.2
20260508072839 6 234 0.0 0.0 0.00 0.00 0.00 32 1019.2
20260508072349 6 234 0.0 0.0 0.00 0.00 0.00 34 1019.2
20260508071835 6 234 0.0 0.0 0.00 0.00 0.00 32 1019.1
20260508071339 6 234 0.0 0.0 0.00 0.00 0.00 33 1019.2
20260508070844 6 234 0.0 0.0 0.00 0.00 0.00 32 1019.2
20260508070330 6 234 0.0 0.0 0.00 0.00 0.00 32 1019.2
20260508065837 6 234 0.0 0.0 0.00 0.00 0.00 31 1019.2
20260508065343 6 234 0.0 0.0 0.00 0.00 0.00 32 1019.1
20260508064848 6 234 0.0 0.0 0.00 0.00 0.00 32 1019.1
20260508064332 6 234 0.0 0.0 0.00 0.00 0.00 33 1019.1
20260508063837 6 234 0.0 0.0 0.00 0.00 0.00 35 1019.1
20260508063347 6 234 0.0 0.0 0.00 0.00 0.00 34 1019.1
20260508062834 6 234 0.0 0.0 0.00 0.00 0.00 33 1019.1
20260508062341 6 234 0.0 0.0 0.00 0.00 0.00 33 1019.0
20260508061846 7 234 0.0 0.0 0.00 0.00 0.00 32 1019.0
20260508061336 7 234 0.0 0.0 0.00 0.00 0.00 32 1019.0
20260508060842 7 234 0.0 0.0 0.00 0.00 0.00 31 1019.0
20260508060330 7 234 0.0 0.0 0.00 0.00 0.00 30 1019.0
20260508055835 7 234 0.0 0.0 0.00 0.00 0.00 29 1019.0
20260508055341 7 234 0.0 0.0 0.00 0.00 0.00 29 1019.1
20260508054830 8 234 0.0 0.0 0.00 0.00 0.00 29 1019.0
20260508054336 8 234 0.0 0.0 0.00 0.00 0.00 29 1019.1
20260508053839 8 234 0.0 0.0 0.00 0.00 0.00 27 1019.0
20260508053344 8 234 0.0 1.6 0.00 0.00 0.00 27 1019.1
20260508052850 8 234 0.0 1.6 0.00 0.00 0.00 27 1019.1
20260508052333 8 234 0.0 0.0 0.00 0.00 0.00 28 1019.1
20260508051837 8 234 0.0 0.0 0.00 0.00 0.00 27 1019.0
20260508051343 8 234 0.0 0.0 0.00 0.00 0.00 27 1019.1
20260508050847 8 234 0.0 0.0 0.00 0.00 0.00 27 1019.2
20260508050333 8 234 0.0 0.0 0.00 0.00 0.00 26 1019.1
20260508045838 9 234 0.0 0.0 0.00 0.00 0.00 26 1019.1
20260508045346 9 234 0.0 0.0 0.00 0.00 0.00 25 1019.1
20260508044830 9 234 0.0 0.0 0.00 0.00 0.00 25 1019.0
20260508044336 10 234 0.0 0.0 0.00 0.00 0.00 25 1019.0
20260508043841 10 234 0.0 0.0 0.00 0.00 0.00 26 1019.1
20260508043327 10 234 0.0 0.0 0.00 0.00 0.00 25 1019.2
20260508042836 10 234 0.0 0.0 0.00 0.00 0.00 24 1019.2
20260508042340 10 234 0.0 0.0 0.00 0.00 0.00 24 1019.2
20260508041845 10 234 0.0 0.0 0.00 0.00 0.00 22 1019.2
20260508041330 11 234 0.0 0.0 0.00 0.00 0.00 22 1019.1
20260508040836 11 234 0.0 0.0 0.00 0.00 0.00 21 1019.1
20260508040345 11 234 0.0 0.0 0.00 0.00 0.00 21 1019.1
20260508035831 11 234 0.0 0.0 0.00 0.00 0.00 22 1019.0
20260508035339 11 234 0.0 0.0 0.00 0.00 0.00 21 1019.0
20260508034844 12 234 0.0 0.0 0.00 0.00 0.00 20 1018.9
20260508034332 12 234 0.0 0.0 0.00 0.00 0.00 18 1018.9
20260508033840 13 234 0.0 0.0 0.00 0.00 0.00 16 1018.7
20260508033346 13 234 0.0 0.0 0.00 0.00 0.00 16 1018.6
20260508032831 13 234 0.0 3.2 0.00 0.00 0.00 15 1018.5
20260508032337 13 234 0.0 4.8 0.00 0.00 0.00 14 1018.4
20260508031842 14 235 0.0 6.4 0.00 0.00 0.00 14 1018.2
20260508031330 14 237 0.0 6.4 0.00 0.00 0.00 14 1018.1
20260508030839 15 238 1.6 9.7 0.00 0.00 0.00 13 1018.0
20260508030343 15 177 3.2 9.7 0.00 0.00 0.00 13 1017.9
20260508025831 15 262 1.6 6.4 0.00 0.00 0.00 12 1017.9
20260508025339 15 189 0.0 8.0 0.00 0.00 0.00 12 1017.8
20260508024845 15 189 1.6 9.7 0.00 0.00 0.00 12 1017.7
20260508024330 15 204 1.6 9.7 0.00 0.00 0.00 12 1017.6
20260508023834 16 199 1.6 6.4 0.00 0.00 0.00 12 1017.6
20260508023342 16 194 1.6 6.4 0.00 0.00 0.00 12 1017.6
20260508022832 16 180 0.0 3.2 0.00 0.00 0.00 11 1017.5
20260508022340 16 198 0.0 3.2 0.00 0.00 0.00 11 1017.5
20260508021844 16 198 0.0 8.0 0.00 0.00 0.00 12 1017.4
20260508021350 17 198 1.6 11.3 0.00 0.00 0.00 10 1017.4
20260508020834 17 173 0.0 11.3 0.00 0.00 0.00 11 1017.4
20260508020340 17 196 1.6 8.0 0.00 0.00 0.00 10 1017.3
20260508015845 17 187 3.2 11.3 0.00 0.00 0.00 10 1017.3
20260508015333 17 157 3.2 11.3 0.00 0.00 0.00 10 1017.2
20260508014838 17 185 4.8 14.5 0.00 0.00 0.00 10 1017.3
20260508014343 18 182 1.6 14.5 0.00 0.00 0.00 10 1017.3
20260508013833 18 184 3.2 11.3 0.00 0.00 0.00 11 1017.3
20260508013337 18 153 4.8 11.3 0.00 0.00 0.00 10 1017.2
20260508012842 18 190 3.2 11.3 0.00 0.00 0.00 10 1017.2
20260508012326 18 171 3.2 11.3 0.00 0.00 0.00 10 1017.1
20260508011834 18 211 3.2 9.7 0.00 0.00 0.00 10 1017.1
20260508011339 19 200 1.6 14.5 0.00 0.00 0.00 10 1017.0
20260508010848 19 212 1.6 16.1 0.00 0.00 0.00 10 1017.1
20260508010332 19 196 6.4 16.1 0.00 0.00 0.00 10 1017.1
20260508005836 20 183 8.0 17.7 0.00 0.03 0.00 10 1017.1
20260508005342 20 171 3.2 11.3 0.00 0.03 0.00 11 1017.1
20260508004830 20 180 1.6 9.7 0.00 0.03 0.00 10 1017.1
20260508004338 20 202 3.2 12.9 0.00 0.03 0.00 11 1017.2
20260508003845 20 238 1.6 12.9 0.00 0.03 0.00 10 1017.1
20260508003330 20 186 1.6 14.5 0.00 0.03 0.00 11 1017.2
20260508002835 20 171 4.8 14.5 0.00 0.03 0.00 10 1017.2
20260508002340 20 193 3.2 8.0 0.00 0.03 0.00 11 1017.2
20260508001843 20 188 3.2 8.0 0.00 0.03 0.00 11 1017.4
20260508001348 20 186 1.6 12.9 0.00 0.03 0.00 11 1017.3
20260508000833 20 167 6.4 12.9 0.00 0.03 0.00 11 1017.3
20260508000338 20 253 3.2 16.1 0.00 0.03 0.00 11 1017.4
20260507235844 20 211 8.0 16.1 0.00 0.03 0.00 11 1017.4
20260507235332 20 254 4.8 11.3 0.00 0.03 0.00 12 1017.4
20260507234840 20 194 3.2 11.3 0.00 0.03 0.00 13 1017.4
20260507234345 20 188 3.2 16.1 0.00 0.03 0.00 13 1017.4
20260507233830 20 233 4.8 16.1 0.00 0.03 0.00 13 1017.4
20260507233335 20 178 6.4 16.1 0.00 0.03 0.00 13 1017.4
20260507232840 21 218 3.2 16.1 0.00 0.03 0.00 14 1017.5
20260507232345 20 232 6.4 12.9 0.00 0.03 0.00 14 1017.5
20260507231830 21 238 6.4 11.3 0.00 0.03 0.00 14 1017.6
20260507231334 20 252 3.2 11.3 0.00 0.03 0.00 16 1017.5
20260507230842 20 195 4.8 9.7 0.00 0.03 0.00 15 1017.5
20260507230331 20 193 3.2 14.5 0.00 0.03 0.00 16 1017.6
20260507225837 20 196 1.6 16.1 0.00 0.03 0.00 16 1017.5
20260507225342 20 213 6.4 16.1 0.00 0.03 0.00 16 1017.7
20260507224830 20 250 3.2 16.1 0.00 0.03 0.00 18 1017.7
20260507224335 20 182 4.8 16.1 0.00 0.03 0.00 17 1017.7
20260507223841 21 190 4.8 14.5 0.00 0.03 0.00 17 1017.7
20260507223345 21 214 6.4 14.5 0.00 0.03 0.00 17 1017.8
20260507222834 21 241 1.6 9.7 0.00 0.03 0.00 18 1017.8
20260507222340 20 280 3.2 6.4 0.00 0.03 0.00 16 1017.9
20260507221830 20 213 0.0 8.0 0.00 0.03 0.00 17 1018.0
20260507221336 20 249 1.6 12.9 0.00 0.03 0.00 16 1018.0
20260507220842 20 234 4.8 17.7 0.00 0.03 0.00 15 1018.1
20260507220346 20 250 6.4 17.7 0.00 0.03 0.00 16 1018.3
20260507215832 20 208 4.8 12.9 0.00 0.03 0.00 16 1018.2
20260507215337 20 196 3.2 16.1 0.00 0.03 0.00 16 1018.3
20260507214845 20 252 6.4 16.1 0.00 0.03 0.00 15 1018.4
20260507214333 20 265 3.2 9.7 0.00 0.03 0.00 15 1018.4
20260507213838 20 224 3.2 16.1 0.00 0.03 0.00 15 1018.5
20260507213345 20 234 3.2 17.7 0.00 0.03 0.00 13 1018.6
20260507212835 20 263 4.8 17.7 0.00 0.03 0.00 13 1018.7
20260507212340 20 306 4.8 9.7 0.00 0.03 0.00 13 1018.8
20260507211846 20 183 1.6 11.3 0.00 0.03 0.00 11 1018.8
20260507211334 19 238 4.8 16.1 0.00 0.03 0.00 12 1019.0
20260507210842 20 313 6.4 16.1 0.00 0.03 0.00 12 1019.0
20260507210348 19 261 3.2 9.7 0.00 0.03 0.00 11 1019.1
20260507205833 19 302 3.2 9.7 0.00 0.03 0.00 11 1019.2
20260507205338 19 312 3.2 14.5 0.00 0.03 0.00 12 1019.2
20260507204844 19 288 6.4 17.7 0.00 0.03 0.00 11 1019.4
20260507204331 18 294 3.2 17.7 0.00 0.03 0.00 11 1019.4
20260507203840 19 278 4.8 14.5 0.00 0.03 0.00 8 1019.5
20260507203345 19 296 3.2 20.9 0.00 0.03 0.00 8 1019.6
20260507202829 18 276 9.7 20.9 0.00 0.03 0.00 9 1019.6
20260507202335 18 330 3.2 12.9 0.00 0.03 0.00 9 1019.7
20260507201844 18 302 6.4 12.9 0.00 0.03 0.00 8 1019.8
20260507201330 18 297 4.8 12.9 0.00 0.03 0.00 8 1019.8
20260507200838 18 243 6.4 17.7 0.00 0.03 0.00 8 1019.9
20260507200343 18 277 6.4 17.7 0.00 0.03 0.00 10 1019.9
20260507195832 18 295 3.2 14.5 0.00 0.03 0.00 9 1020.0
20260507195337 18 28 4.8 14.5 0.00 0.03 0.00 10 1020.0
20260507194846 18 355 6.4 14.5 0.00 0.03 0.00 8 1020.1
20260507194331 18 276 6.4 14.5 0.00 0.03 0.00 11 1020.2
20260507193836 18 332 4.8 12.9 0.00 0.03 0.00 10 1020.3
20260507193343 17 26 6.4 16.1 0.00 0.03 0.00 10 1020.4
20260507192846 17 311 3.2 20.9 0.00 0.03 0.00 10 1020.3
20260507192332 17 271 6.4 20.9 0.00 0.03 0.00 10 1020.4
20260507191838 17 276 6.4 17.7 0.00 0.03 0.00 12 1020.4
20260507191343 17 325 4.8 16.1 0.00 0.03 0.00 12 1020.4
20260507190831 17 300 6.4 16.1 0.00 0.03 0.00 14 1020.4
20260507190339 17 263 4.8 16.1 0.00 0.03 0.00 12 1020.5
20260507185848 17 268 6.4 17.7 0.00 0.03 0.00 11 1020.4
20260507185332 16 312 4.8 19.3 0.00 0.03 0.00 14 1020.5
20260507184837 16 316 9.7 20.9 0.00 0.03 0.00 14 1020.6
20260507184341 16 9 8.0 20.9 0.00 0.03 0.00 14 1020.7
20260507183829 16 308 6.4 17.7 0.00 0.03 0.00 15 1020.7
20260507183336 16 308 8.0 20.9 0.00 0.03 0.00 15 1020.7
20260507182841 16 333 11.3 22.5 0.00 0.03 0.00 15 1020.7
20260507182345 16 317 9.7 22.5 0.00 0.03 0.00 17 1020.9
20260507181830 15 311 8.0 19.3 0.00 0.03 0.00 19 1021.0
20260507181335 15 339 11.3 19.3 0.00 0.03 0.00 19 1021.1
20260507180847 15 336 4.8 24.1 0.00 0.03 0.00 20 1021.1
20260507180331 15 320 9.7 24.1 0.00 0.03 0.00 21 1021.2
20260507175836 14 319 11.3 27.4 0.00 0.03 0.00 25 1021.3
20260507175340 15 331 16.1 27.4 0.00 0.03 0.00 24 1021.3
20260507174845 15 310 14.5 22.5 0.00 0.03 0.00 25 1021.4
20260507174329 14 310 6.4 20.9 0.00 0.03 0.00 27 1021.5
20260507173834 13 290 6.4 22.5 0.00 0.03 0.00 29 1021.6
20260507173341 13 311 9.7 24.1 0.00 0.03 0.00 29 1021.7
20260507172829 13 313 8.0 25.7 0.00 0.03 0.00 32 1021.6
20260507172333 13 296 12.9 25.7 0.00 0.03 0.00 31 1021.8
20260507171842 13 301 6.4 24.1 0.00 0.03 0.00 34 1021.8
20260507171330 12 330 8.0 24.1 0.00 0.03 0.00 36 1021.9
20260507170837 12 305 9.7 29.0 0.00 0.03 0.00 36 1021.9
20260507170342 12 284 9.7 29.0 0.00 0.03 0.00 37 1022.0
20260507165846 11 18 14.5 27.4 0.00 0.03 0.00 37 1022.0
20260507165332 11 331 12.9 29.0 0.00 0.03 0.00 37 1022.1
20260507164836 11 5 12.9 29.0 0.00 0.03 0.00 39 1022.0
20260507164341 11 296 12.9 22.5 0.00 0.03 0.00 41 1022.1
20260507163845 10 355 11.3 25.7 0.00 0.03 0.00 44 1022.2
20260507163330 10 311 14.5 29.0 0.00 0.03 0.00 43 1022.3
20260507162839 10 311 6.4 29.0 0.00 0.03 0.00 48 1022.3
20260507162346 10 15 12.9 24.1 0.00 0.03 0.00 46 1022.2
20260507161831 9 288 12.9 24.1 0.00 0.03 0.00 47 1022.3
20260507161336 9 319 9.7 22.5 0.00 0.03 0.00 50 1022.5
20260507160840 8 279 8.0 20.9 0.00 0.03 0.00 51 1022.5
20260507160348 8 46 12.9 20.9 0.00 0.03 0.00 51 1022.5
20260507155832 8 308 9.7 19.3 0.00 0.03 0.00 52 1022.7
20260507155336 7 315 9.7 20.9 0.00 0.03 0.00 54 1022.8
20260507154841 7 318 11.3 25.7 0.00 0.03 0.00 55 1022.8
20260507154326 7 287 12.9 25.7 0.00 0.03 0.00 55 1022.8
20260507153915 7 323 11.3 20.9 0.00 0.03 0.00 54 1022.7
20260507153837 7 323 11.3 20.9 0.00 0.03 0.00 54 1022.7
20260507153550 7 335 6.4 22.5 0.00 0.03 0.00 58 1022.8
20260507153342 7 335 6.4 22.5 0.00 0.03 0.00 58 1022.8
20260507152846 7 342 12.9 24.1 0.00 0.03 0.00 56 1023.0
20260507152409 6 300 6.4 19.3 0.00 0.03 0.00 57 1023.0
20260507152330 7 298 9.7 24.1 0.00 0.03 0.00 55 1022.9
20260507151835 6 300 6.4 19.3 0.00 0.03 0.00 57 1023.0
20260507151339 7 5 11.3 19.3 0.00 0.03 0.00 54 1023.0
20260507150826 7 355 9.7 16.1 0.00 0.03 0.00 54 1023.0
20260507150334 7 318 8.0 16.1 0.00 0.03 0.00 53 1023.0
20260507145841 6 311 6.4 14.5 0.00 0.03 0.00 58 1023.0
20260507145347 6 304 3.2 12.9 0.00 0.03 0.00 59 1023.1
20260507144835 6 319 6.4 12.9 0.00 0.03 0.00 61 1023.0
20260507144339 6 317 4.8 11.3 0.00 0.03 0.00 63 1023.1
20260507143844 6 325 1.6 14.5 0.00 0.03 0.00 64 1023.2
20260507143328 5 351 4.8 17.7 0.00 0.03 0.00 65 1023.2
20260507142833 5 327 9.7 17.7 0.00 0.03 0.00 64 1023.4
20260507142336 5 304 6.4 17.7 0.00 0.03 0.00 67 1023.4
20260507141841 5 320 3.2 12.9 0.00 0.03 0.00 67 1023.4
20260507141326 5 321 3.2 11.3 0.00 0.03 0.00 68 1023.4
20260507140833 5 336 3.2 11.3 0.00 0.03 0.00 70 1023.5
20260507140338 5 310 4.8 9.7 0.00 0.03 0.00 72 1023.6
20260507135827 4 348 3.2 9.7 0.00 0.03 0.00 76 1023.6
20260507135334 3 336 3.2 6.4 0.00 0.03 0.00 78 1023.6
20260507134838 3 94 0.0 0.0 0.00 0.03 0.00 79 1023.6
20260507134343 3 94 0.0 0.0 0.00 0.03 0.00 81 1023.6
20260507133847 2 94 0.0 0.0 0.00 0.03 0.00 82 1023.5
20260507133333 2 94 0.0 0.0 0.00 0.03 0.00 82 1023.5
20260507132838 2 94 0.0 0.0 0.00 0.03 0.00 82 1023.5
20260507132343 2 94 0.0 0.0 0.00 0.03 0.00 83 1023.5
20260507131847 1 94 0.0 0.0 0.00 0.03 0.00 84 1023.5
20260507131331 1 94 0.0 0.0 0.00 0.03 0.00 85 1023.6
20260507130836 1 94 0.0 0.0 0.00 0.03 0.00 85 1023.6
20260507130344 1 94 0.0 0.0 0.00 0.03 0.00 86 1023.6
20260507125849 0 94 0.0 3.2 0.00 0.03 0.00 86 1023.7
20260507125332 0 94 0.0 3.2 0.00 0.03 0.00 87 1023.7
20260507124838 0 94 0.0 1.6 0.00 0.03 0.00 87 1023.6
20260507124344 0 94 0.0 1.6 0.00 0.03 0.00 88 1023.6
20260507123828 0 94 0.0 1.6 0.00 0.03 0.00 88 1023.5
20260507123333 0 94 0.0 1.6 0.00 0.03 0.00 88 1023.6
20260507122837 0 94 0.0 0.0 0.00 0.03 0.00 89 1023.6
20260507122342 0 94 0.0 0.0 0.00 0.03 0.00 89 1023.6
20260507121846 0 94 0.0 0.0 0.00 0.03 0.00 89 1023.6
20260507121335 0 94 0.0 0.0 0.00 0.03 0.00 89 1023.6
20260507120840 0 94 0.0 0.0 0.00 0.03 0.00 89 1023.6
20260507120325 0 94 0.0 0.0 0.00 0.03 0.00 88 1023.6
20260507115833 0 94 0.0 0.0 0.00 0.03 0.00 88 1023.6
20260507115337 -1 94 0.0 0.0 0.00 0.03 0.00 88 1023.6
20260507114842 -1 94 0.0 0.0 0.00 0.03 0.00 87 1023.4
20260507114347 -1 94 0.0 0.0 0.00 0.03 0.00 87 1023.6
20260507113831 -1 94 0.0 0.0 0.00 0.03 0.00 87 1023.5
20260507113336 -1 94 0.0 0.0 0.00 0.03 0.00 86 1023.5
20260507112842 -1 94 0.0 0.0 0.00 0.03 0.00 86 1023.5
20260507112334 -1 94 0.0 0.0 0.00 0.03 0.00 86 1023.5
20260507111838 0 94 0.0 0.0 0.00 0.03 0.00 85 1023.4
20260507111343 0 94 0.0 0.0 0.00 0.03 0.00 85 1023.4
20260507110847 0 94 0.0 0.0 0.00 0.03 0.00 85 1023.4
20260507110332 0 94 0.0 0.0 0.00 0.03 0.00 84 1023.4
20260507105837 0 94 0.0 0.0 0.00 0.05 0.00 83 1023.4
20260507105342 0 94 0.0 0.0 0.00 0.05 0.00 83 1023.3
20260507104847 0 94 0.0 0.0 0.00 0.05 0.00 83 1023.4
20260507104332 0 94 0.0 0.0 0.00 0.05 0.00 83 1023.5
20260507103837 0 94 0.0 0.0 0.00 0.05 0.00 83 1023.5
20260507103342 0 94 0.0 0.0 0.00 0.05 0.00 82 1023.5
20260507102831 0 94 0.0 0.0 0.00 0.05 0.00 81 1023.5
20260507102336 0 94 0.0 0.0 0.00 0.05 0.00 81 1023.4
20260507101840 0 94 0.0 0.0 0.00 0.05 0.00 81 1023.4
20260507101345 0 94 0.0 0.0 0.00 0.05 0.00 81 1023.5
20260507100829 0 94 0.0 0.0 0.00 0.05 0.00 81 1023.5
20260507100334 0 94 0.0 0.0 0.00 0.05 0.00 81 1023.4
20260507095839 0 94 0.0 0.0 0.00 0.05 0.00 81 1023.4
20260507095344 0 94 0.0 0.0 0.00 0.05 0.00 81 1023.4
20260507094828 0 94 0.0 0.0 0.00 0.05 0.00 80 1023.5
20260507094333 0 94 0.0 0.0 0.00 0.05 0.00 79 1023.5
20260507093825 0 94 0.0 0.0 0.00 0.05 0.00 79 1023.5
20260507093333 0 94 0.0 0.0 0.00 0.05 0.00 79 1023.5
20260507092838 0 94 0.0 0.0 0.00 0.05 0.00 79 1023.5
20260507092343 0 94 0.0 0.0 0.00 0.05 0.00 78 1023.4
20260507091828 0 94 0.0 0.0 0.00 0.05 0.00 78 1023.5
20260507091337 0 94 0.0 0.0 0.00 0.05 0.00 79 1023.4
20260507090842 0 94 0.0 0.0 0.00 0.05 0.00 78 1023.4
20260507090329 0 94 0.0 0.0 0.00 0.05 0.00 78 1023.5
20260507085837 1 94 0.0 0.0 0.00 0.05 0.00 78 1023.4
20260507085329 1 94 0.0 0.0 0.00 0.05 0.00 78 1023.4
20260507084835 1 94 0.0 0.0 0.00 0.05 0.00 77 1023.3
20260507084342 1 94 0.0 0.0 0.00 0.05 0.00 77 1023.3
20260507083847 1 94 0.0 0.0 0.00 0.05 0.00 76 1023.2
20260507083332 1 94 0.0 0.0 0.00 0.05 0.00 75 1023.3
20260507082837 1 94 0.0 0.0 0.00 0.05 0.00 75 1023.2
20260507082342 1 94 0.0 0.0 0.00 0.05 0.00 74 1023.2
20260507081847 2 94 0.0 0.0 0.00 0.05 0.00 74 1023.2
20260507081331 2 94 0.0 0.0 0.00 0.05 0.00 73 1023.2
20260507080835 2 94 0.0 0.0 0.00 0.05 0.00 72 1023.2
20260507080340 2 94 0.0 0.0 0.00 0.05 0.00 72 1023.1
20260507075829 2 94 0.0 0.0 0.00 0.05 0.00 72 1023.1